Regional Weather Roundup
Issued by NWS

Home | Current Version | Previous Version | Graphics & Text | Print | Product List | Glossary On
Versions: 1 2 3 4 5 6 7 8 9 10 11 12 13 14 15 16 17 18 19 20 21 22 23 24 25 26 27
000
ASUS45 KSLC 190310
RWRUT

UTAH REGIONAL WEATHER ROUNDUP
NATIONAL WEATHER SERVICE SALT LAKE CITY UT
800 PM MST SUN FEB 18 2018

UTZ001>011-023>025-190400-

NORTHERN UTAH

CITY           SKY/WX    TMP DP  RH WIND       PRES   REMARKS
BRIGHAM CITY   CLOUDY    30  28  92 NW7       29.57R WCI  23
HILL AFB       LGT SNOW  28  28  99 NW10      29.54R FOG     WCI  19
LOGAN          CLOUDY    30  26  85 W5        29.55F WCI  25
OGDEN          LGT SNOW  30  27  88 N6        29.54S FOG     WCI  24
SALT LAKE CITY LGT SNOW  35  32  88 N7        29.54S VSB 1   WCI  29
TOOELE VALLEY  LGT SNOW  32  32 100 NE6       29.55R WCI  26
WENDOVER       CLOUDY    36  19  50 N8        29.56R WCI  30
HEBER CITY     LGT SNOW  30  28  93 N17G30    29.46S WCI  18
WEST JORDAN    CLOUDY    31  31 100 N8        29.55R VSB 1   WCI  23

$$

UTZ011>015-024>027-190400-

CENTRAL/NORTHEAST UTAH

CITY           SKY/WX    TMP DP  RH WIND       PRES   REMARKS
PROVO AIRPORT  CLOUDY    33  31  92 NW15      29.51F WCI  23
MOAB/CANYONLAN PTCLDY    53  23  31 SW15      29.43F
DELTA          MOCLDY    36  28  75 NW7       29.47R WCI  30
PRICE          PTCLDY    47   6  18 S17G31    29.40F
RICHFIELD      CLEAR     48  19  32 S30G38    29.44F
ROOSEVELT      CLEAR     48  10  21 NW5       29.38S
VERNAL         MOCLDY    51  19  28 SW16G28   29.36S

$$

UTZ013>016-019>022-027-190400-

SOUTHERN UTAH

CITY           SKY/WX    TMP DP  RH WIND       PRES   REMARKS
BRYCE CANYON   PTCLDY    38  21  50 S10G26    29.60F WCI  31
CEDAR CITY     PTCLDY    46  20  35 S28G43    29.49F
MILFORD        CLEAR     45  20  36 S23       29.47F
ST GEORGE      CLOUDY    58  25  28 S9        29.56F
HANKSVILLE     CLEAR     55  21  26 SW21G35   29.48S
KANAB          PTCLDY    50  21  32 SW14      29.65R
BLANDING         N/A     49  19  30 SW24G31   29.67F

$$

REGIONAL REPORTS     COLORADO/ARIZONA

CITY           SKY/WX    TMP DP  RH WIND       PRES   REMARKS
CRAIG, CO      CLOUDY    46  19  34 S32G45    29.40F
GRAND JUNCTION CLOUDY    55  19  24 SW20G31   29.45F
RIFLE, CO      PTCLDY    50  22  33 SW12G24   29.47F
MONTROSE, CO   PTCLDY    50  16  25 SW18G28   29.56F
CORTEZ, CO     PTCLDY    46  16  30 SW10      29.67F
COLORADO CITY    N/A     46  27  46 SE8       29.66F
PAGE, AZ       CLEAR     56  23  27 S8        29.58S
GRAND CANYON   CLEAR     40  30  67 SW18G26   29.74S WCI  31
KINGMAN, AZ    CLEAR     56  32  40 S15G26    29.69F
FLAGSTAFF, AZ  CLOUDY    38  33  82 SW29G43   29.77F WCI  26

$$

REGIONAL REPORTS    NEVADA/IDAHO/WYOMING

CITY           SKY/WX    TMP DP  RH WIND       PRES   REMARKS
LAS VEGAS, NV  PTCLDY    64  24  21 SW20G41   29.51F
ELY, NY        CLOUDY    34  13  41 N6        29.48S WCI  29
ELKO, NV       CLOUDY    29  21  72 N8        29.57R WCI  21
POCATELLO, ID  MOCLDY    29  22  75 SW16      29.54F WCI  17
BURLEY, ID     MOCLDY    25  22  88 S9        29.57S WCI  15
EVANSTON, WY   LGT SNOW  21  20  96 E12       29.48F VSB 3/4 WCI   9
ROCK SPRINGS,  FLURRIES  23  20  88 N8        29.52R WCI  14

$$




USA.gov is the U.S. government's official web portal to all federal, state and local government web resources and services.